This is the latest recevied weather packets stored in our database for station/object W6MAF. If no packets are shown the sender has not sent any weather packets the latest 10 day(s).
| Time | Temp. | Humidity | Pressure | Rain* | Wind** | Luminosity | Snow |
|---|---|---|---|---|---|---|---|
| 1777276623 | 5° C | 82% | - | 0 mm | 5.36 m/s, 193° | - | - |
| 1777276580 | 5° C | 82% | - | 0 mm | 5.36 m/s, 193° | - | - |
| 1777276283 | 5° C | 82% | - | 0 mm | 5.81 m/s, 174° | - | - |
| 1777275985 | 5° C | 83% | - | 0 mm | 7.15 m/s, 195° | - | - |
| 1777275684 | 5° C | 83% | - | 0 mm | 6.26 m/s, 187° | - | - |
| 1777275387 | 5° C | 83% | - | 0 mm | 6.26 m/s, 184° | - | - |
| 1777275089 | 5° C | 83% | - | 0 mm | 4.92 m/s, 186° | - | - |
| 1777274791 | 5° C | 82% | - | 0 mm | 4.47 m/s, 224° | - | - |
| 1777274493 | 5° C | 82% | - | 0 mm | 5.81 m/s, 180° | - | - |
| 1777274228 | 5.56° C | 81% | - | 0 mm | 7.15 m/s, 200° | - | - |
| 1777274196 | 5.56° C | 81% | - | 0 mm | 7.15 m/s, 200° | - | - |
| 1777273895 | 5.56° C | 81% | - | 0 mm | 6.26 m/s, 215° | - | - |
| 1777273597 | 5.56° C | 81% | - | 0 mm | 5.81 m/s, 200° | - | - |
| 1777273406 | 5.56° C | 81% | - | 0 mm | 7.15 m/s, 211° | - | - |
| 1777273300 | 5.56° C | 81% | - | 0 mm | 7.15 m/s, 211° | - | - |
| 1777273002 | 5.56° C | 82% | - | 0 mm | 7.6 m/s, 191° | - | - |
| 1777272704 | 5.56° C | 82% | - | 0 mm | 6.26 m/s, 207° | - | - |
| 1777272407 | 5.56° C | 82% | - | 0 mm | 6.71 m/s, 207° | - | - |
| 1777272106 | 5.56° C | 82% | - | 0 mm | 7.15 m/s, 208° | - | - |
| 1777271809 | 5.56° C | 82% | - | 0 mm | 7.6 m/s, 207° | - | - |
| 1777271511 | 5.56° C | 82% | - | 0 mm | 5.81 m/s, 205° | - | - |
| 1777271213 | 5.56° C | 82% | - | 0 mm | 7.15 m/s, 207° | - | - |
| 1777270915 | 5.56° C | 82% | - | 0 mm | 6.26 m/s, 205° | - | - |
| 1777270618 | 5.56° C | 82% | - | 0 mm | 6.26 m/s, 211° | - | - |
| 1777270317 | 5.56° C | 81% | - | 0 mm | 8.49 m/s, 204° | - | - |
* Rain latest hour (hover to see other rain measurements)
** Current wind speed in m/s (hover to see current wind gust speed)